Hourly Weather Koz'ova

Today, 31 October, Saturday

Time Temperature Precipitation Wind Pressure Humidity
00:00 +4°C° 0 mm 3 mps 700 mmHg 100%
01:00 +5°C° 0.4 mm 1 mps 700 mmHg 100%
02:00 +5°C° 0 mm 1 mps 699 mmHg 100%
03:00 +3°C° 0.6 mm 2 mps 699 mmHg 100%
04:00 +4°C° 1.7 mm 1 mps 699 mmHg 100%
05:00 +4°C° 0.5 mm 1 mps 698 mmHg 100%
06:00 +4°C° 0.3 mm 1 mps 698 mmHg 100%
07:00 +3°C° 0.7 mm 2 mps 699 mmHg 100%
08:00 +1°C° 0.8 mm 3 mps 699 mmHg 100%
09:00 0°C° 0.2 mm 4 mps 700 mmHg 100%
10:00 +2°C° 0 mm 3 mps 700 mmHg 100%
11:00 +1°C° 0 mm 4 mps 701 mmHg 100%
12:00 +3°C° 0 mm 3 mps 701 mmHg 100%
13:00 +4°C° 0 mm 4 mps 702 mmHg 100%
14:00 +4°C° 0 mm 4 mps 702 mmHg 100%
15:00 +5°C° 0 mm 4 mps 702 mmHg 100%
16:00 +5°C° 0 mm 3 mps 702 mmHg 100%
17:00 +4°C° 0 mm 3 mps 703 mmHg 100%
18:00 +4°C° 0 mm 4 mps 702 mmHg 100%
19:00 +4°C° 0.1 mm 4 mps 703 mmHg 100%
20:00 +4°C° 0.1 mm 4 mps 703 mmHg 100%
21:00 +4°C° 0.2 mm 4 mps 703 mmHg 100%
22:00 +3°C° 0.1 mm 3 mps 703 mmHg 100%
23:00 +3°C° 0.1 mm 3 mps 703 mmHg 100%

Tomorrow, 1 November, Sunday

Time Temperature Precipitation Wind Pressure Humidity
00:00 +3°C° 0.1 mm 3 mps 703 mmHg 100%
01:00 +3°C° 0 mm 3 mps 703 mmHg 100%
02:00 +4°C° 0 mm 2 mps 703 mmHg 100%
03:00 +4°C° 0 mm 2 mps 703 mmHg 100%
04:00 +4°C° 0 mm 1 mps 703 mmHg 100%
05:00 +3°C° 0 mm 2 mps 703 mmHg 100%
06:00 +3°C° 0 mm 2 mps 702 mmHg 100%
07:00 +3°C° 0 mm 2 mps 702 mmHg 100%
08:00 +2°C° 0 mm 2 mps 702 mmHg 100%
09:00 +4°C° 0 mm 1 mps 702 mmHg 100%
10:00 +5°C° 0 mm 1 mps 702 mmHg 100%
11:00 +6°C° 0 mm 1 mps 702 mmHg 100%
12:00 +8°C° 0 mm 1 mps 702 mmHg 100%
13:00 +9°C° 0 mm 1 mps 702 mmHg 98%
14:00 +9°C° 0 mm 1 mps 702 mmHg 97%
15:00 +8°C° 0 mm 2 mps 702 mmHg 94%
16:00 +8°C° 0 mm 3 mps 702 mmHg 95%
17:00 +7°C° 0 mm 3 mps 701 mmHg 100%
18:00 +5°C° 0 mm 3 mps 701 mmHg 100%
19:00 +4°C° 0 mm 3 mps 701 mmHg 100%
20:00 +4°C° 0 mm 2 mps 701 mmHg 100%
21:00 +3°C° 0 mm 3 mps 700 mmHg 100%
22:00 +3°C° 0 mm 3 mps 700 mmHg 100%
23:00 +3°C° 0 mm 3 mps 700 mmHg 100%

Day after tomorrow, 2 November, Monday

Time Temperature Precipitation Wind Pressure Humidity
00:00 +3°C° 0 mm 3 mps 700 mmHg 100%
01:00 +3°C° 0 mm 4 mps 700 mmHg 100%
02:00 +3°C° 0 mm 4 mps 699 mmHg 100%
03:00 +3°C° 0 mm 3 mps 699 mmHg 100%
04:00 +4°C° 0.3 mm 3 mps 699 mmHg 100%
05:00 +4°C° 0.7 mm 3 mps 699 mmHg 100%
06:00 +3°C° 0.9 mm 3 mps 699 mmHg 100%
07:00 +3°C° 0.5 mm 3 mps 699 mmHg 100%
08:00 +3°C° 0.5 mm 3 mps 699 mmHg 100%
09:00 +5°C° 0.9 mm 2 mps 699 mmHg 100%
10:00 +5°C° 0.3 mm 2 mps 700 mmHg 100%
11:00 +5°C° 0.1 mm 2 mps 700 mmHg 100%
12:00 +6°C° 0.5 mm 2 mps 700 mmHg 100%
13:00 +6°C° 0.9 mm 2 mps 700 mmHg 100%
14:00 +6°C° 0 mm 2 mps 700 mmHg 100%
15:00 +6°C° 0 mm 2 mps 700 mmHg 100%
16:00 +6°C° 0 mm 2 mps 700 mmHg 100%
17:00 +7°C° 0 mm 2 mps 701 mmHg 100%
18:00 +6°C° 0 mm 2 mps 701 mmHg 100%
19:00 +7°C° 0 mm 2 mps 701 mmHg 100%
20:00 +7°C° 0 mm 2 mps 701 mmHg 100%
21:00 +8°C° 0 mm 1 mps 701 mmHg 100%
22:00 +8°C° 0.1 mm 1 mps 701 mmHg 100%
23:00 +8°C° 0.1 mm 1 mps 701 mmHg 100%

3 November, Tuesday

Time Temperature Precipitation Wind Pressure Humidity
00:00 +8°C° 0.2 mm 1 mps 701 mmHg 100%
01:00 +8°C° 0.3 mm 1 mps 701 mmHg 100%
02:00 +8°C° 0.1 mm 1 mps 701 mmHg 100%
03:00 +8°C° 0 mm 1 mps 701 mmHg 100%
04:00 +8°C° 0.1 mm 1 mps 701 mmHg 100%
05:00 +8°C° 0 mm 1 mps 701 mmHg 100%
06:00 +9°C° 0 mm 1 mps 701 mmHg 100%
07:00 +9°C° 0 mm 1 mps 701 mmHg 100%
08:00 +9°C° 0 mm 1 mps 701 mmHg 100%
09:00 +9°C° 0 mm 1 mps 702 mmHg 100%
10:00 +8°C° 0 mm 0 mps 702 mmHg 100%
11:00 +9°C° 0 mm 0 mps 702 mmHg 100%
12:00 +10°C° 0 mm 1 mps 703 mmHg 100%
13:00 +10°C° 0.1 mm 1 mps 703 mmHg 100%
14:00 +10°C° 0 mm 1 mps 703 mmHg 100%
15:00 +11°C° 0 mm 1 mps 703 mmHg 100%
16:00 +12°C° 0 mm 2 mps 703 mmHg 100%
17:00 +12°C° 0 mm 2 mps 704 mmHg 100%
18:00 +12°C° 0 mm 2 mps 704 mmHg 100%
19:00 +12°C° 0 mm 2 mps 704 mmHg 100%
20:00 +12°C° 0 mm 2 mps 704 mmHg 100%
21:00 +12°C° 0 mm 2 mps 705 mmHg 100%
22:00 +12°C° 1 mm 1 mps 705 mmHg 100%
23:00 +12°C° 0.3 mm 2 mps 705 mmHg 100%

4 November, Wednesday

Time Temperature Precipitation Wind Pressure Humidity
00:00 +9°C° 0.1 mm 5 mps 705 mmHg 100%
01:00 +8°C° 0.2 mm 5 mps 705 mmHg 100%
02:00 +7°C° 0.1 mm 4 mps 705 mmHg 100%
03:00 +7°C° 0.2 mm 4 mps 706 mmHg 100%
04:00 +7°C° 0 mm 4 mps 705 mmHg 100%
05:00 +7°C° 0 mm 3 mps 706 mmHg 100%
06:00 +6°C° 0 mm 4 mps 706 mmHg 100%
07:00 +5°C° 0 mm 4 mps 706 mmHg 100%
08:00 +5°C° 0 mm 4 mps 706 mmHg 100%
09:00 +5°C° 0 mm 4 mps 707 mmHg 100%
10:00 +5°C° 0.5 mm 5 mps 707 mmHg 100%
11:00 +3°C° 0.2 mm 5 mps 707 mmHg 100%
12:00 +4°C° 0.1 mm 4 mps 707 mmHg 100%
13:00 +4°C° 0.2 mm 4 mps 707 mmHg 100%
14:00 +4°C° 0.2 mm 3 mps 707 mmHg 100%
15:00 +6°C° 0.2 mm 2 mps 707 mmHg 100%
16:00 +6°C° 0.2 mm 2 mps 707 mmHg 100%
17:00 +5°C° 0.6 mm 2 mps 707 mmHg 100%
18:00 +5°C° 0.6 mm 2 mps 707 mmHg 100%
19:00 +5°C° 0.5 mm 2 mps 707 mmHg 100%
20:00 +4°C° 0.5 mm 3 mps 707 mmHg 100%
21:00 +4°C° 0.5 mm 3 mps 707 mmHg 100%
22:00 +4°C° 0.6 mm 3 mps 707 mmHg 100%
23:00 +5°C° 0.1 mm 2 mps 707 mmHg 100%

5 November, Thursday

Time Temperature Precipitation Wind Pressure Humidity
00:00 +5°C° 0.1 mm 2 mps 707 mmHg 100%
01:00 +6°C° 0.3 mm 2 mps 707 mmHg 100%
02:00 +7°C° 0.1 mm 1 mps 707 mmHg 100%
03:00 +7°C° 0.5 mm 1 mps 707 mmHg 100%
04:00 +7°C° 0.4 mm 1 mps 707 mmHg 100%
05:00 +7°C° 0.2 mm 1 mps 707 mmHg 100%
06:00 +8°C° 0.2 mm 1 mps 707 mmHg 100%
07:00 +7°C° 0.2 mm 2 mps 707 mmHg 100%
08:00 +7°C° 0.1 mm 2 mps 707 mmHg 100%
09:00 +8°C° 0.3 mm 3 mps 707 mmHg 100%
10:00 +8°C° 0.5 mm 3 mps 707 mmHg 100%
11:00 +8°C° 0.1 mm 3 mps 707 mmHg 100%
12:00 +8°C° 0.1 mm 4 mps 707 mmHg 100%
13:00 +8°C° 0.1 mm 4 mps 707 mmHg 100%
14:00 +8°C° 0 mm 4 mps 707 mmHg 100%
15:00 +7°C° 0 mm 4 mps 707 mmHg 100%
16:00 +8°C° 0 mm 3 mps 707 mmHg 100%
17:00 +8°C° 0.4 mm 2 mps 707 mmHg 100%
18:00 +7°C° 0.3 mm 2 mps 707 mmHg 100%
19:00 +6°C° 1.1 mm 2 mps 707 mmHg 100%
20:00 +5°C° 0.3 mm 2 mps 708 mmHg 100%
21:00 +4°C° 0 mm 3 mps 708 mmHg 100%
22:00 +3°C° 0.5 mm 3 mps 708 mmHg 100%
23:00 +3°C° 0.6 mm 3 mps 708 mmHg 100%
Show more